KCIKMI Weather Reports


Display with metric or nautical units.
time (UTC)temp
F
wind
direction
speed
MPH
gust
MPH
rain 1hr
in
rain 24hr
in
rain mn
in
humidity
%
barometer
mb
20260906144509 65 353 1.0 3.0 0.00 0.06 0.06 81 1013.7
20260906143007 64 360 0.0 6.0 0.00 0.06 0.06 83 1013.7
20260906141506 64 349 0.0 6.0 0.00 0.06 0.06 83 1013.7
20260906140011 64 3 0.0 2.0 0.00 0.06 0.06 86 1013.7
20260906134503 63 5 1.0 4.0 0.00 0.06 0.06 91 1013.6
20260906133002 62 1 0.0 3.0 0.00 0.06 0.06 92 1013.6
20260906131502 62 351 0.0 0.0 0.00 0.06 0.06 93 1013.5
20260906130001 62 360 0.0 3.0 0.01 0.06 0.06 95 1013.6
20260906124500 61 353 0.0 3.0 0.02 0.06 0.06 95 1013.6
20260906123059 61 3 0.0 2.0 0.02 0.06 0.06 95 1013.4
20260906121608 60 1 0.0 0.0 0.02 0.06 0.06 95 1013.3
20260906120057 60 360 0.0 0.0 0.01 0.05 0.05 95 1013.4
20260906114609 60 360 0.0 0.0 0.00 0.04 0.04 95 1013.3
20260906113107 60 350 0.0 0.0 0.02 0.04 0.04 95 1013.1
20260906111552 60 11 0.0 0.0 0.02 0.04 0.04 95 1012.8
20260906110049 60 349 0.0 0.0 0.02 0.04 0.04 95 1012.5
20260906104548 60 335 1.0 6.0 0.02 0.04 0.04 94 1012.3
20260906103043 61 360 3.0 8.0 0.00 0.02 0.02 92 1012.3
20260906101540 63 20 1.0 4.0 0.00 0.02 0.02 92 1012.0
20260906100037 63 2 1.0 5.0 0.00 0.02 0.02 92 1011.7
20260906094546 63 346 0.0 3.0 0.00 0.02 0.02 92 1011.6
20260906093033 62 7 0.0 0.0 0.00 0.02 0.02 93 1011.3
20260906091536 62 7 0.0 0.0 0.00 0.02 0.02 95 1011.2
20260906090032 62 7 0.0 0.0 0.01 0.02 0.02 95 1011.1
20260906084533 62 8 0.0 0.0 0.01 0.02 0.02 94 1011.0
20260906083032 62 8 0.0 0.0 0.01 0.02 0.02 94 1010.9
20260906081538 62 8 0.0 0.0 0.01 0.02 0.02 94 1010.8
20260906080031 62 8 0.0 0.0 0.00 0.01 0.01 93 1010.6
20260906074528 63 4 0.0 0.0 0.00 0.01 0.01 93 1010.6
20260906073027 62 360 0.0 1.0 0.00 0.01 0.01 93 1010.7
20260906071531 62 358 0.0 1.0 0.00 0.01 0.01 93 1010.7
20260906070026 62 5 0.0 2.0 0.00 0.01 0.01 93 1010.7
20260906064527 62 6 0.0 1.0 0.00 0.01 0.01 93 1010.7
20260906063023 63 9 0.0 0.0 0.00 0.01 0.01 93 1010.7
20260906061521 63 6 0.0 0.0 0.01 0.01 0.01 93 1010.6
20260906060020 63 6 0.0 0.0 0.01 0.01 0.01 92 1010.8
20260906054518 63 5 0.0 1.0 0.01 0.01 0.01 91 1010.7
20260906053017 64 12 0.0 1.0 0.01 0.01 0.01 91 1011.0
20260906051517 64 1 0.0 1.0 0.00 0.00 0.00 89 1011.1
20260906050016 64 5 0.0 2.0 0.00 0.00 0.00 89 1011.2
20260906044512 64 11 0.0 1.0 0.00 0.00 0.00 89 1011.1
20260906043012 64 8 0.0 1.0 0.00 0.00 0.00 88 1011.0
20260906041510 65 360 0.0 2.0 0.00 0.00 0.00 88 1011.0
20260906040014 65 356 0.0 1.0 0.00 0.00 0.00 88 1011.0
20260906034505 65 356 0.0 0.0 0.00 0.00 0.00 88 1010.8
20260906033003 65 356 0.0 1.0 0.00 0.00 0.00 87 1010.6
20260906031503 65 356 0.0 1.0 0.00 0.00 0.00 86 1010.6
20260906030004 65 356 0.0 0.0 0.00 0.00 0.00 86 1010.7
20260906024502 65 356 0.0 0.0 0.00 0.00 0.00 85 1010.6
20260906023002 65 356 0.0 0.0 0.00 0.00 0.00 85 1010.6
20260906021500 66 356 0.0 1.0 0.00 0.00 0.00 84 1010.7
20260906020000 66 356 0.0 3.0 0.00 0.00 0.00 82 1010.6
20260906014600 66 3 0.0 1.0 0.00 0.00 0.00 82 1010.7
20260906013100 66 3 0.0 2.0 0.00 0.00 0.00 82 1010.6
20260906011609 66 3 1.0 3.0 0.00 0.00 0.00 81 1010.8
20260906010057 66 346 0.0 1.0 0.00 0.00 0.00 81 1010.6
20260906004600 66 344 0.0 1.0 0.00 0.00 0.00 82 1010.4
20260906003056 66 176 0.0 0.0 0.00 0.00 0.00 81 1010.4
20260906001553 67 176 0.0 0.0 0.00 0.00 0.00 81 1010.1
20260906000059 67 261 0.0 0.0 0.00 0.00 0.00 81 1010.0
20260905234549 67 345 0.0 1.0 0.00 0.00 0.00 80 1009.8
20260905233053 67 284 0.0 0.0 0.00 0.00 0.00 80 1009.7
20260905231550 68 359 0.0 2.0 0.00 0.00 0.00 79 1009.7
20260905230047 68 338 0.0 1.0 0.00 0.00 0.00 78 1009.6
20260905224548 69 18 0.0 0.0 0.00 0.00 0.00 78 1009.6
20260905223046 69 350 0.0 3.0 0.00 0.00 0.00 77 1009.5
20260905221559 70 292 0.0 3.0 0.00 0.00 0.00 76 1009.4
20260905220043 70 360 0.0 3.0 0.00 0.00 0.00 77 1009.2
20260905214540 71 1 0.0 1.0 0.00 0.00 0.00 77 1008.9
20260905213038 71 354 0.0 3.0 0.00 0.00 0.00 75 1008.6
20260905211537 72 338 2.0 4.0 0.00 0.00 0.00 74 1008.5
20260905210036 73 355 2.0 4.0 0.00 0.00 0.00 73 1008.4
20260905204538 73 358 1.0 4.0 0.00 0.00 0.00 73 1008.2
20260905203035 73 321 0.0 5.0 0.00 0.00 0.00 73 1008.1
20260905201536 73 323 1.0 3.0 0.00 0.00 0.00 72 1007.9
20260905200038 73 332 0.0 4.0 0.00 0.00 0.00 74 1007.9
20260905194533 73 341 1.0 5.0 0.00 0.00 0.00 73 1007.9
20260905193040 74 336 0.0 7.0 0.00 0.00 0.00 71 1008.0
20260905191532 74 16 1.0 4.0 0.00 0.00 0.00 73 1007.9
20260905190041 73 21 0.0 5.0 0.00 0.00 0.00 73 1008.0
20260905184534 73 212 0.0 3.0 0.00 0.00 0.00 75 1008.0
20260905183031 72 348 0.0 4.0 0.00 0.00 0.00 75 1008.1
20260905181533 72 351 2.0 5.0 0.00 0.00 0.00 75 1008.3
20260905180039 72 338 2.0 5.0 0.00 0.00 0.00 74 1008.2
20260905174527 73 356 0.0 3.0 0.00 0.00 0.00 74 1008.1
20260905173026 72 328 0.0 5.0 0.00 0.00 0.00 74 1008.0
20260905171535 74 5 0.0 3.0 0.00 0.00 0.00 73 1007.8
20260905170024 74 342 3.0 7.0 0.00 0.00 0.00 72 1007.6
20260905164523 74 24 2.0 6.0 0.00 0.00 0.00 72 1007.5
20260905163022 74 350 1.0 5.0 0.00 0.00 0.00 70 1007.5
20260905161525 74 344 1.0 4.0 0.00 0.00 0.00 72 1007.5
20260905160034 76 346 3.0 7.0 0.00 0.00 0.00 69 1007.3
20260905154520 76 312 2.0 6.0 0.00 0.00 0.00 69 1007.3
20260905153019 75 11 2.0 9.0 0.00 0.00 0.00 69 1007.3
20260905151514 75 3 3.0 9.0 0.00 0.00 0.00 71 1007.2
20260905150011 75 353 0.0 6.0 0.00 0.00 0.00 71 1007.2